This is the latest recevied weather packets stored in our database for station/object 4S6DRJ-13. If no packets are shown the sender has not sent any weather packets the latest 10 day(s).
| Time | Temp. | Humidity | Pressure | Rain* | Wind** | Luminosity | Snow |
|---|---|---|---|---|---|---|---|
| 1787788323 | 26.67° C | 89% | 1009.2 hPa | 0 mm | 0.89 m/s, 231° | 0 W/m² | - |
| 1787788261 | 26.67° C | 90% | 1009.2 hPa | 0 mm | 0.45 m/s, 221° | 0 W/m² | - |
| 1787788200 | 26.67° C | 90% | 1009.2 hPa | 0 mm | 0.45 m/s, 227° | 0 W/m² | - |
| 1787788139 | 26.67° C | 90% | 1009.1 hPa | 0 mm | 0.45 m/s, 210° | 0 W/m² | - |
| 1787788078 | 26.67° C | 90% | 1009.3 hPa | 0 mm | 0 m/s | 0 W/m² | - |
| 1787788017 | 26.67° C | 90% | 1009.3 hPa | 0 mm | 0.89 m/s, 232° | 0 W/m² | - |
| 1787787956 | 26.67° C | 90% | 1009.3 hPa | 0 mm | 0.89 m/s, 228° | 0 W/m² | - |
| 1787787896 | 26.67° C | 90% | 1009.2 hPa | 0 mm | 0.45 m/s, 181° | 0 W/m² | - |
| 1787787835 | 26.67° C | 90% | 1009.3 hPa | 0 mm | 0.45 m/s, 225° | 0 W/m² | - |
| 1787787773 | 26.67° C | 90% | 1009.2 hPa | 0 mm | 0.89 m/s, 203° | 0 W/m² | - |
| 1787787712 | 26.67° C | 90% | 1009.1 hPa | 0 mm | 0 m/s | 0 W/m² | - |
| 1787787651 | 26.67° C | 90% | 1009.2 hPa | 0 mm | 0 m/s | 0 W/m² | - |
| 1787787593 | 26.67° C | 90% | 1009.3 hPa | 0 mm | 0 m/s | 0 W/m² | - |
| 1787787529 | 26.67° C | 90% | 1009.1 hPa | 0 mm | 0.45 m/s, 222° | 0 W/m² | - |
| 1787787468 | 26.67° C | 90% | 1009.2 hPa | 0 mm | 0.45 m/s, 213° | 0 W/m² | - |
| 1787787407 | 26.67° C | 90% | 1009.3 hPa | 0 mm | 0.89 m/s, 210° | 0 W/m² | - |
| 1787787346 | 26.67° C | 90% | 1009.2 hPa | 0 mm | 0.89 m/s, 210° | 0 W/m² | - |
| 1787787285 | 26.67° C | 90% | 1009.1 hPa | 0 mm | 0.45 m/s, 227° | 0 W/m² | - |
| 1787787224 | 26.67° C | 90% | 1009 hPa | 0 mm | 0 m/s | 0 W/m² | - |
| 1787787163 | 26.67° C | 90% | 1009.3 hPa | 0 mm | 0 m/s | 0 W/m² | - |
| 1787787101 | 26.67° C | 90% | 1009 hPa | 0 mm | 0 m/s | 0 W/m² | - |
| 1787787041 | 26.67° C | 90% | 1009.2 hPa | 0 mm | 0 m/s | 0 W/m² | - |
| 1787786980 | 26.67° C | 89% | 1009 hPa | 0 mm | 0.89 m/s, 198° | 0 W/m² | - |
| 1787786919 | 26.67° C | 89% | 1009.1 hPa | 0 mm | 0 m/s | 0 W/m² | - |
| 1787786857 | 26.67° C | 89% | 1008.9 hPa | 0 mm | 0 m/s | 0 W/m² | - |
* Rain latest hour (hover to see other rain measurements)
** Current wind speed in m/s (hover to see current wind gust speed)